Location: Newark
(23.3970°S, 47.6010°W)
Time: 16:00:35
(UTC+00:00)

A-11 Canister half - All Passes

Search period start: 19 February 2020 00:00
Search period end: 29 February 2020 00:00
Orbit: 1525 x 1684 km, 47.3° (Epoch: 18 February)

Date Brightness Start Highest point End Pass type
(mag) Time Alt. Az. Time Alt. Az. Time Alt. Az.
19 Feb - 00:19:28 10° NW 00:29:17 82° NE 00:39:27 10° SE visible
19 Feb - 02:26:33 10° W 02:35:15 33° SSW 02:44:10 10° SSE visible
19 Feb - 04:37:37 10° SW 04:43:49 17° S 04:50:02 10° SE visible
19 Feb - 06:44:54 10° SSW 06:52:55 25° SSE 07:00:47 10° ESE visible
19 Feb - 08:49:28 10° SW 08:59:38 71° SE 09:09:26 10° NE daylight
19 Feb - 10:55:58 10° WSW 11:04:10 30° NW 11:12:09 10° N daylight
19 Feb - 21:58:17 10° NNE 22:03:30 16° ENE 22:08:47 10° E visible
19 Feb - 23:57:52 10° NW 00:07:38 78° NE 00:17:45 10° SE visible
20 Feb - 02:04:42 10° W 02:13:29 34° SSW 02:22:30 10° SSE visible
20 Feb - 04:15:43 10° SW 04:21:57 17° S 04:28:13 10° SSE visible
20 Feb - 06:23:13 10° SSW 06:31:06 24° SSE 06:38:51 10° ESE visible
20 Feb - 08:27:48 10° SW 08:37:57 67° SE 08:47:44 10° ENE visible
20 Feb - 10:34:06 10° WSW 10:42:33 32° NW 10:50:47 10° N daylight
20 Feb - 21:37:21 10° NNE 21:41:54 14° ENE 21:46:30 10° E daylight
20 Feb - 23:36:17 10° NW 23:45:59 74° NE 23:56:03 10° SE visible
21 Feb - 01:42:52 10° W 01:51:44 36° SSW 02:00:51 10° SSE visible
21 Feb - 03:53:48 10° SW 04:00:05 18° S 04:06:25 10° SSE visible
21 Feb - 06:01:33 10° SSW 06:09:16 23° SSE 06:16:55 10° ESE visible
21 Feb - 08:06:08 10° SW 08:16:15 64° SE 08:26:03 10° ENE visible
21 Feb - 10:12:15 10° WSW 10:20:57 34° NW 10:29:25 10° N daylight
21 Feb - 21:16:34 10° NE 21:20:18 13° ENE 21:24:03 10° E daylight
21 Feb - 23:14:42 10° NNW 23:24:20 70° NE 23:34:20 10° SE visible
22 Feb - 01:21:01 10° W 01:29:58 37° SSW 01:39:12 10° SSE visible
22 Feb - 03:31:52 10° SW 03:38:13 18° S 03:44:37 10° SSE visible
22 Feb - 05:39:51 10° SSW 05:47:27 23° SSE 05:54:58 10° ESE visible
22 Feb - 07:44:28 10° SW 07:54:33 61° SE 08:04:19 10° ENE visible
22 Feb - 09:50:25 10° WSW 09:59:20 37° NW 10:08:00 10° N daylight
22 Feb - 20:56:07 10° NE 20:58:42 11° ENE 21:01:17 10° ENE daylight
22 Feb - 22:53:09 10° NNW 23:02:42 65° NE 23:12:37 10° SE visible
23 Feb - 00:59:12 10° W 01:08:14 39° SSW 01:17:32 10° SSE visible
23 Feb - 03:09:57 10° SW 03:16:22 18° S 03:22:50 10° SSE visible
23 Feb - 05:18:11 10° SSW 05:25:38 22° SSE 05:33:01 10° ESE visible
23 Feb - 07:22:48 10° SW 07:32:51 58° SE 07:42:35 10° ENE visible
23 Feb - 09:28:35 10° WSW 09:37:42 40° NW 09:46:34 10° NNE daylight
23 Feb - 22:31:35 10° NNW 22:41:03 62° NE 22:50:53 10° SE visible
24 Feb - 00:37:23 10° WNW 00:46:29 41° SW 00:55:54 10° SE visible
24 Feb - 02:48:01 10° SW 02:54:30 18° S 03:01:05 10° SSE visible
24 Feb - 04:56:29 10° SSW 05:03:48 21° SSE 05:11:05 10° ESE visible
24 Feb - 07:01:10 10° SW 07:11:08 55° SE 07:20:51 10° ENE visible
24 Feb - 09:06:48 10° WSW 09:16:05 42° NW 09:25:06 10° NNE daylight
24 Feb - 22:10:04 10° NNW 22:19:25 58° NE 22:29:08 10° SE visible
25 Feb - 00:15:35 10° WNW 00:24:45 43° SW 00:34:14 10° SE visible
25 Feb - 02:26:05 10° SW 02:32:39 19° SSW 02:39:18 10° SSE visible
25 Feb - 04:34:47 10° SSW 04:41:58 21° SSE 04:49:06 10° ESE visible
25 Feb - 06:39:30 10° SW 06:49:25 52° SE 06:59:05 10° ENE visible
25 Feb - 08:45:01 10° WSW 08:54:27 45° NW 09:03:38 10° NNE daylight
25 Feb - 21:48:33 10° NNW 21:57:48 54° NE 22:07:24 10° SE visible
25 Feb - 23:53:48 10° WNW 00:03:01 45° SW 00:12:35 10° SE visible
26 Feb - 02:04:09 10° SW 02:10:48 19° SSW 02:17:33 10° SSE visible
26 Feb - 04:13:05 10° SSW 04:20:07 20° SSE 04:27:09 10° ESE visible
26 Feb - 06:17:51 10° SW 06:27:42 50° SE 06:37:19 10° ENE visible
26 Feb - 08:23:13 10° WSW 08:32:49 48° NW 08:42:09 10° NNE visible
26 Feb - 21:27:02 10° NNW 21:36:10 51° NE 21:45:38 10° ESE daylight
26 Feb - 23:32:01 10° WNW 23:41:18 47° SW 23:50:56 10° SE visible
27 Feb - 01:42:12 10° WSW 01:48:58 20° SSW 01:55:49 10° SSE visible
27 Feb - 03:51:22 10° SSW 03:58:17 20° SSE 04:05:10 10° ESE visible
27 Feb - 05:56:12 10° SW 06:05:58 47° SE 06:15:32 10° ENE visible
27 Feb - 08:01:28 10° WSW 08:11:11 52° NW 08:20:39 10° NNE visible
27 Feb - 21:05:33 10° NNW 21:14:33 47° NE 21:23:52 10° ESE daylight
27 Feb - 23:10:16 10° WNW 23:19:35 49° SW 23:29:16 10° SE visible
28 Feb - 01:20:16 10° WSW 01:27:07 20° SSW 01:34:05 10° SSE visible
28 Feb - 03:29:39 10° SSW 03:36:25 19° SSE 03:43:12 10° SE visible
28 Feb - 05:34:33 10° SW 05:44:14 45° SE 05:53:44 10° ENE visible
28 Feb - 07:39:42 10° SW 07:49:32 55° NW 07:59:07 10° NNE visible
28 Feb - 20:44:05 10° NNW 20:52:56 44° NE 21:02:06 10° ESE daylight
28 Feb - 22:48:32 10° WNW 22:57:52 52° SW 23:07:37 10° SE visible
